DAL98 KMCO-KMIA

Flight info

Callsign DAL98
Flight time 0h 44m
Altitude 23000
Route DDANY3 DDANY CSTAL3
Aircraft L101/H-SDFGHIRWXY/S

Departure

Time 2026-04-26 13:37
Airport Orlando International Airport (KMCO)

Arrival

Time 2026-04-26 14:22
Airport Miami International Airport (KMIA)
Time Latitude Longitude Altitude Speed Heading
2026-04-26 12:52 28.42836 -81.29984 99 ft 0 kts 286°
2026-04-26 13:24 28.42833 -81.29969 100 ft 3 kts 286°
2026-04-26 13:25 28.42826 -81.29943 101 ft 3 kts 286°
2026-04-26 13:25 28.42821 -81.29922 99 ft 3 kts 289°
2026-04-26 13:25 28.42811 -81.29898 100 ft 3 kts 308°
2026-04-26 13:25 28.42795 -81.29883 100 ft 3 kts 353°
2026-04-26 13:26 28.42774 -81.29882 99 ft 3 kts 360°
2026-04-26 13:26 28.42767 -81.29882 99 ft 0 kts 360°
2026-04-26 13:34 28.42794 -81.29884 101 ft 8 kts 355°
2026-04-26 13:34 28.42871 -81.29877 100 ft 14 kts 19°
2026-04-26 13:34 28.42912 -81.29823 101 ft 13 kts 70°
2026-04-26 13:35 28.42971 -81.29711 101 ft 15 kts 15°
2026-04-26 13:35 28.43087 -81.29709 102 ft 19 kts 359°
2026-04-26 13:35 28.43230 -81.29708 101 ft 22 kts
2026-04-26 13:35 28.43352 -81.29709 102 ft 15 kts 359°
2026-04-26 13:36 28.43461 -81.29709 101 ft 16 kts
2026-04-26 13:36 28.43539 -81.29655 101 ft 9 kts 76°
2026-04-26 13:36 28.43520 -81.29595 103 ft 8 kts 160°
2026-04-26 13:36 28.43500 -81.29590 104 ft 4 kts 173°
2026-04-26 13:37 28.43357 -81.29584 103 ft 63 kts 179°
2026-04-26 13:37 28.42570 -81.29577 109 ft 158 kts 180°
2026-04-26 13:37 28.41321 -81.29547 790 ft 195 kts 179°
2026-04-26 13:37 28.39908 -81.29380 2027 ft 208 kts 172°
2026-04-26 13:38 28.38486 -81.29057 3567 ft 212 kts 170°
2026-04-26 13:38 28.36941 -81.28681 4433 ft 247 kts 169°
2026-04-26 13:38 28.35189 -81.28231 4769 ft 265 kts 169°
2026-04-26 13:38 28.33391 -81.27738 5218 ft 268 kts 168°
2026-04-26 13:39 28.31575 -81.27207 5725 ft 270 kts 167°
2026-04-26 13:39 28.29773 -81.26648 6218 ft 273 kts 167°
2026-04-26 13:39 28.27935 -81.26046 6696 ft 276 kts 166°
2026-04-26 13:39 28.26085 -81.25407 7183 ft 280 kts 165°
2026-04-26 13:40 28.24215 -81.24730 7668 ft 283 kts 164°
2026-04-26 13:40 28.22336 -81.24018 8166 ft 286 kts 163°
2026-04-26 13:40 28.20445 -81.23269 8648 ft 289 kts 162°
2026-04-26 13:40 28.18540 -81.22483 9165 ft 293 kts 162°
2026-04-26 13:41 28.16622 -81.21659 9672 ft 297 kts 161°
2026-04-26 13:41 28.14684 -81.20816 10159 ft 300 kts 161°
2026-04-26 13:41 28.12722 -81.19960 10620 ft 303 kts 161°
2026-04-26 13:41 28.10743 -81.19092 11088 ft 306 kts 161°
2026-04-26 13:42 28.08749 -81.18212 11573 ft 309 kts 161°
2026-04-26 13:42 28.06734 -81.17317 12054 ft 312 kts 161°
2026-04-26 13:42 28.04697 -81.16409 12557 ft 316 kts 160°
2026-04-26 13:42 28.02669 -81.15501 13059 ft 320 kts 160°
2026-04-26 13:43 28.00565 -81.14555 13560 ft 323 kts 160°
2026-04-26 13:43 27.98467 -81.13609 14049 ft 336 kts 160°
2026-04-26 13:43 27.96212 -81.12592 14512 ft 352 kts 160°
2026-04-26 13:43 27.93927 -81.11560 14989 ft 363 kts 160°
2026-04-26 13:44 27.91548 -81.10484 15463 ft 372 kts 160°
2026-04-26 13:44 27.89119 -81.09383 15938 ft 380 kts 160°
2026-04-26 13:44 27.86648 -81.08258 16431 ft 386 kts 160°
2026-04-26 13:44 27.84141 -81.07115 16930 ft 390 kts 160°
2026-04-26 13:45 27.81612 -81.05956 17440 ft 394 kts 160°
2026-04-26 13:45 27.79060 -81.04784 17955 ft 396 kts 160°
2026-04-26 13:45 27.76501 -81.03603 18452 ft 399 kts 160°
2026-04-26 13:45 27.73932 -81.02414 18894 ft 401 kts 160°
2026-04-26 13:46 27.71311 -81.01199 19236 ft 415 kts 159°
2026-04-26 13:46 27.68649 -80.99962 19653 ft 412 kts 159°
2026-04-26 13:46 27.65981 -80.98718 20177 ft 416 kts 159°
2026-04-26 13:46 27.63296 -80.97464 20698 ft 420 kts 159°
2026-04-26 13:47 27.60581 -80.96194 21194 ft 423 kts 159°
2026-04-26 13:47 27.57850 -80.94912 21695 ft 427 kts 159°
2026-04-26 13:47 27.55097 -80.93620 22198 ft 430 kts 159°
2026-04-26 13:47 27.52319 -80.92322 22661 ft 436 kts 159°
2026-04-26 13:48 27.49491 -80.91007 22858 ft 447 kts 159°
2026-04-26 13:48 27.46521 -80.89634 22946 ft 471 kts 159°
2026-04-26 13:48 27.43472 -80.88223 22958 ft 477 kts 159°
2026-04-26 13:48 27.40395 -80.86797 22973 ft 479 kts 159°
2026-04-26 13:49 27.37312 -80.85365 22987 ft 479 kts 159°
2026-04-26 13:49 27.34227 -80.83928 22993 ft 479 kts 159°
2026-04-26 13:49 27.31149 -80.82490 22993 ft 479 kts 159°
2026-04-26 13:49 27.28064 -80.81046 22995 ft 479 kts 159°
2026-04-26 13:50 27.24985 -80.79601 22983 ft 480 kts 159°
2026-04-26 13:50 27.21933 -80.78164 22527 ft 465 kts 159°
2026-04-26 13:50 27.19022 -80.76785 21992 ft 443 kts 159°
2026-04-26 13:50 27.16226 -80.75453 21207 ft 432 kts 158°
2026-04-26 13:51 27.13467 -80.74131 20121 ft 430 kts 158°
2026-04-26 13:51 27.10720 -80.72811 18905 ft 430 kts 158°
2026-04-26 13:51 27.07981 -80.71489 17711 ft 427 kts 158°
2026-04-26 13:51 27.05271 -80.70175 16664 ft 419 kts 158°
2026-04-26 13:52 27.02631 -80.68886 15836 ft 407 kts 158°
2026-04-26 13:52 27.00082 -80.67630 15046 ft 396 kts 158°
2026-04-26 13:52 26.97585 -80.66388 14172 ft 389 kts 158°
2026-04-26 13:52 26.95126 -80.65154 13102 ft 386 kts 157°
2026-04-26 13:53 26.92686 -80.63920 12014 ft 383 kts 157°
2026-04-26 13:53 26.90346 -80.62724 12298 ft 323 kts 157°
2026-04-26 13:53 26.88629 -80.61817 14657 ft 250 kts 157°
2026-04-26 13:53 26.86996 -80.60945 15364 ft 276 kts 156°
2026-04-26 13:54 26.85137 -80.59961 15307 ft 321 kts 156°
2026-04-26 13:54 26.82950 -80.58816 15330 ft 369 kts 156°
2026-04-26 13:54 26.80562 -80.57570 15569 ft 385 kts 156°
2026-04-26 13:55 26.75882 -80.54378 14433 ft 396 kts 137°
2026-04-26 13:55 26.74650 -80.52892 13897 ft 391 kts 128°
2026-04-26 13:55 26.71082 -80.47297 12830 ft 371 kts 125°
2026-04-26 13:56 26.69604 -80.44915 12846 ft 373 kts 124°
2026-04-26 13:56 26.68620 -80.43326 12740 ft 376 kts 124°
2026-04-26 13:56 26.66640 -80.40135 12044 ft 375 kts 125°
2026-04-26 13:56 26.65644 -80.38525 11668 ft 370 kts 125°
2026-04-26 13:57 26.64198 -80.36178 11300 ft 362 kts 125°
2026-04-26 13:57 26.62778 -80.33861 11096 ft 360 kts 125°
2026-04-26 13:57 26.61368 -80.31550 11048 ft 356 kts 124°
2026-04-26 13:57 26.60028 -80.29348 11023 ft 328 kts 124°
2026-04-26 13:58 26.58793 -80.27311 11023 ft 309 kts 124°
2026-04-26 13:58 26.57588 -80.25321 11052 ft 311 kts 124°
2026-04-26 13:58 26.56372 -80.23313 11052 ft 313 kts 124°
2026-04-26 13:58 26.55130 -80.21307 11023 ft 313 kts 129°
2026-04-26 13:59 26.53632 -80.19554 11013 ft 311 kts 139°
2026-04-26 13:59 26.51970 -80.18002 11013 ft 311 kts 143°
2026-04-26 13:59 26.50246 -80.16533 11020 ft 312 kts 144°
2026-04-26 14:00 26.45012 -80.12266 11012 ft 310 kts 146°
2026-04-26 14:00 26.43267 -80.10855 11011 ft 310 kts 146°
2026-04-26 14:00 26.42114 -80.09924 11017 ft 310 kts 146°
2026-04-26 14:01 26.39781 -80.08040 11016 ft 310 kts 146°
2026-04-26 14:01 26.38038 -80.06631 11016 ft 309 kts 146°
2026-04-26 14:01 26.36291 -80.05220 11018 ft 309 kts 146°
2026-04-26 14:01 26.34551 -80.03814 11016 ft 309 kts 146°
2026-04-26 14:02 26.32805 -80.02403 11017 ft 309 kts 146°
2026-04-26 14:02 26.30908 -80.01321 10977 ft 306 kts 166°
2026-04-26 14:02 26.28827 -80.01063 10978 ft 299 kts 188°
2026-04-26 14:02 26.26842 -80.01630 11014 ft 294 kts 205°
2026-04-26 14:03 26.25016 -80.02667 11049 ft 295 kts 213°
2026-04-26 14:03 26.23162 -80.03651 11021 ft 299 kts 201°
2026-04-26 14:03 26.21126 -80.04158 11014 ft 300 kts 189°
2026-04-26 14:03 26.19026 -80.04314 11023 ft 303 kts 184°
2026-04-26 14:04 26.16916 -80.04328 11017 ft 304 kts 182°
2026-04-26 14:04 26.14803 -80.04288 11012 ft 304 kts 181°
2026-04-26 14:04 26.12687 -80.04226 11002 ft 304 kts 181°
2026-04-26 14:04 26.10596 -80.04155 11002 ft 304 kts 180°
2026-04-26 14:05 26.08482 -80.04101 11005 ft 304 kts 182°
2026-04-26 14:05 26.06374 -80.04205 11006 ft 303 kts 188°
2026-04-26 14:05 26.04310 -80.04595 10995 ft 300 kts 198°
2026-04-26 14:05 26.02326 -80.05352 10758 ft 303 kts 204°
2026-04-26 14:06 26.00417 -80.06259 10302 ft 295 kts 207°
2026-04-26 14:06 25.98581 -80.07210 9834 ft 288 kts 208°
2026-04-26 14:06 25.96796 -80.08172 9306 ft 282 kts 208°
2026-04-26 14:06 25.95053 -80.09134 8816 ft 277 kts 208°
2026-04-26 14:07 25.93353 -80.10107 8358 ft 270 kts 211°
2026-04-26 14:07 25.91817 -80.11207 8145 ft 256 kts 219°
2026-04-26 14:07 25.90503 -80.12448 8072 ft 241 kts 224°
2026-04-26 14:07 25.89283 -80.13726 8059 ft 243 kts 225°
2026-04-26 14:08 25.88063 -80.15046 8058 ft 246 kts 225°
2026-04-26 14:08 25.86872 -80.16427 7851 ft 250 kts 235°
2026-04-26 14:08 25.86150 -80.18170 7463 ft 248 kts 255°
2026-04-26 14:08 25.85828 -80.20029 7116 ft 243 kts 262°
2026-04-26 14:09 25.85649 -80.21888 6754 ft 240 kts 264°
2026-04-26 14:09 25.85528 -80.23733 6411 ft 240 kts 265°
2026-04-26 14:09 25.85434 -80.25573 6175 ft 238 kts 266°
2026-04-26 14:09 25.85350 -80.27415 6043 ft 241 kts 265°
2026-04-26 14:10 25.85266 -80.29277 5710 ft 240 kts 266°
2026-04-26 14:10 25.85186 -80.31121 5339 ft 238 kts 266°
2026-04-26 14:10 25.85113 -80.32923 5142 ft 229 kts 266°
2026-04-26 14:10 25.85040 -80.34664 5069 ft 225 kts 266°
2026-04-26 14:11 25.85361 -80.38127 4992 ft 233 kts 293°
2026-04-26 14:11 25.86149 -80.39706 4774 ft 233 kts 301°
2026-04-26 14:11 25.87035 -80.41209 4421 ft 232 kts 303°
2026-04-26 14:12 25.87949 -80.42693 4052 ft 234 kts 303°
2026-04-26 14:12 25.88945 -80.44211 3653 ft 233 kts 312°
2026-04-26 14:12 25.90207 -80.45299 3340 ft 232 kts 328°
2026-04-26 14:12 25.91599 -80.46144 3151 ft 224 kts 332°
2026-04-26 14:13 25.94258 -80.47565 3057 ft 203 kts 330°
2026-04-26 14:13 25.95343 -80.48569 3042 ft 204 kts 308°
2026-04-26 14:13 25.96183 -80.49850 3094 ft 206 kts 301°
2026-04-26 14:14 25.96958 -80.51181 3068 ft 203 kts 300°
2026-04-26 14:14 25.97688 -80.52520 3035 ft 202 kts 295°
2026-04-26 14:14 25.98289 -80.53942 3034 ft 204 kts 291°
2026-04-26 14:14 25.98728 -80.55406 2955 ft 199 kts 270°
2026-04-26 14:15 25.98375 -80.56834 2882 ft 192 kts 231°
2026-04-26 14:15 25.97303 -80.57645 2883 ft 190 kts 192°
2026-04-26 14:15 25.96000 -80.57494 2917 ft 194 kts 153°
2026-04-26 14:15 25.95016 -80.56466 3015 ft 199 kts 126°
2026-04-26 14:16 25.94310 -80.55122 3125 ft 204 kts 119°
2026-04-26 14:16 25.93670 -80.53751 3082 ft 195 kts 125°
2026-04-26 14:16 25.92770 -80.52633 3057 ft 195 kts 141°
2026-04-26 14:16 25.91665 -80.51724 3067 ft 199 kts 151°
2026-04-26 14:17 25.90542 -80.50884 2982 ft 193 kts 135°
2026-04-26 14:17 25.89790 -80.49661 2995 ft 191 kts 120°
2026-04-26 14:17 25.89227 -80.48403 3268 ft 173 kts 119°
2026-04-26 14:17 25.88646 -80.47206 3292 ft 178 kts 121°
2026-04-26 14:18 25.88039 -80.46004 3059 ft 174 kts 121°
2026-04-26 14:18 25.87651 -80.45238 2908 ft 171 kts 121°
2026-04-26 14:18 25.86868 -80.43707 2634 ft 171 kts 121°
2026-04-26 14:18 25.86287 -80.42569 2447 ft 172 kts 121°
2026-04-26 14:19 25.85690 -80.41409 2222 ft 172 kts 122°
2026-04-26 14:19 25.85105 -80.40273 1995 ft 168 kts 121°
2026-04-26 14:19 25.84518 -80.39131 1791 ft 169 kts 122°
2026-04-26 14:19 25.83940 -80.38015 1582 ft 173 kts 123°
2026-04-26 14:20 25.83325 -80.36820 1327 ft 173 kts 122°
2026-04-26 14:20 25.82729 -80.35648 1099 ft 172 kts 121°
2026-04-26 14:20 25.82152 -80.34532 923 ft 164 kts 122°
2026-04-26 14:20 25.81578 -80.33463 757 ft 153 kts 123°
2026-04-26 14:21 25.81090 -80.32487 506 ft 144 kts 121°
2026-04-26 14:21 25.80581 -80.31502 347 ft 151 kts 123°
2026-04-26 14:21 25.80036 -80.30445 135 ft 156 kts 122°
2026-04-26 14:21 25.79711 -80.29805 23 ft 145 kts 122°
2026-04-26 14:22 25.79406 -80.29172 20 ft 24 kts 91°
2026-04-26 14:22 25.79428 -80.29082 22 ft 4 kts 65°
2026-04-26 14:22 25.79434 -80.29051 23 ft 9 kts 87°
2026-04-26 14:22 25.79412 -80.28960 23 ft 14 kts 111°
2026-04-26 14:23 25.79440 -80.28852 22 ft 16 kts 49°
2026-04-26 14:23 25.79520 -80.28802 20 ft 9 kts
2026-04-26 14:23 25.79566 -80.28752 23 ft 6 kts 72°
2026-04-26 14:23 25.79583 -80.28687 21 ft 11 kts 73°
2026-04-26 14:24 25.79614 -80.28598 23 ft 13 kts 51°
2026-04-26 14:24 25.79641 -80.28571 20 ft 0 kts 39°
2026-04-26 14:24 25.79655 -80.28560 23 ft 6 kts 32°
2026-04-26 14:25 25.79698 -80.28534 20 ft 7 kts 26°
2026-04-26 14:25 25.79707 -80.28529 20 ft 0 kts 25°